When you browse on this site, cookies collect data to enhance your experience and personalize the content and advertising you see.
Visit our Privacy Policy to learn more. By continuing to use the site, you agree to this use of cookies and data.
  • In United Kingdom
  • List of Countries
  • For 7 days
  • Water Temperature
  • Weather Map
  • Weather Widgets
  • user-avatar
    Login

    Hourly Weather Razgrad

    Today, 17 February, Monday

    Time Temperature Precipitation Wind Pressure Humidity
    00:00 +4°C° 0 mm 1 mps 752 mmHg 79%
    01:00 +4°C° 0 mm 1 mps 752 mmHg 80%
    02:00 +3°C° 0 mm 1 mps 752 mmHg 81%
    03:00 +3°C° 0 mm 1 mps 752 mmHg 81%
    04:00 +3°C° 0 mm 1 mps 751 mmHg 81%
    05:00 +3°C° 0 mm 1 mps 751 mmHg 81%
    06:00 +3°C° 0 mm 1 mps 751 mmHg 80%
    07:00 +3°C° 0 mm 1 mps 751 mmHg 79%
    08:00 +3°C° 0 mm 2 mps 751 mmHg 78%
    09:00 +4°C° 0 mm 2 mps 751 mmHg 70%
    10:00 +7°C° 0 mm 1 mps 750 mmHg 62%
    11:00 +9°C° 0 mm 1 mps 750 mmHg 54%
    12:00 +10°C° 0 mm 1 mps 749 mmHg 50%
    13:00 +12°C° 0 mm 1 mps 749 mmHg 45%
    14:00 +13°C° 0 mm 1 mps 749 mmHg 41%
    15:00 +12°C° 0 mm 1 mps 748 mmHg 45%
    16:00 +12°C° 0 mm 1 mps 748 mmHg 48%
    17:00 +12°C° 0 mm 1 mps 747 mmHg 52%
    18:00 +10°C° 0 mm 1 mps 747 mmHg 56%
    19:00 +9°C° 0 mm 1 mps 748 mmHg 60%
    20:00 +7°C° 0 mm 2 mps 748 mmHg 65%
    21:00 +6°C° 0 mm 2 mps 747 mmHg 66%
    22:00 +6°C° 0 mm 2 mps 747 mmHg 67%
    23:00 +5°C° 0 mm 2 mps 747 mmHg 69%

    Tomorrow, 18 February, Tuesday

    Time Temperature Precipitation Wind Pressure Humidity
    00:00 +6°C° 0 mm 1 mps 746 mmHg 69%
    01:00 +5°C° 0 mm 1 mps 746 mmHg 70%
    02:00 +5°C° 0 mm 1 mps 746 mmHg 70%
    03:00 +5°C° 0 mm 1 mps 746 mmHg 70%
    04:00 +5°C° 0 mm 1 mps 745 mmHg 70%
    05:00 +4°C° 0 mm 1 mps 745 mmHg 70%
    06:00 +5°C° 0 mm 1 mps 745 mmHg 68%
    07:00 +5°C° 0 mm 1 mps 745 mmHg 67%
    08:00 +5°C° 0 mm 1 mps 745 mmHg 66%
    09:00 +7°C° 0 mm 1 mps 745 mmHg 60%
    10:00 +9°C° 0 mm 1 mps 745 mmHg 54%
    11:00 +11°C° 0 mm 1 mps 745 mmHg 48%
    12:00 +12°C° 0 mm 2 mps 744 mmHg 48%
    13:00 +13°C° 0 mm 2 mps 744 mmHg 48%
    14:00 +13°C° 0 mm 3 mps 744 mmHg 48%
    15:00 +13°C° 0 mm 3 mps 744 mmHg 51%
    16:00 +12°C° 0 mm 3 mps 744 mmHg 55%
    17:00 +12°C° 0 mm 3 mps 743 mmHg 58%
    18:00 +12°C° 0 mm 2 mps 744 mmHg 63%
    19:00 +10°C° 0 mm 2 mps 744 mmHg 69%
    20:00 +9°C° 0 mm 2 mps 744 mmHg 74%
    21:00 +8°C° 0 mm 2 mps 744 mmHg 78%
    22:00 +8°C° 0 mm 2 mps 744 mmHg 82%
    23:00 +7°C° 0 mm 2 mps 744 mmHg 85%

    Day after tomorrow, 19 February, Wednesday

    Time Temperature Precipitation Wind Pressure Humidity
    00:00 +7°C° 0 mm 2 mps 745 mmHg 87%
    01:00 +7°C° 0 mm 2 mps 745 mmHg 90%
    02:00 +6°C° 0 mm 2 mps 745 mmHg 92%
    03:00 +7°C° 0 mm 1 mps 745 mmHg 92%
    04:00 +6°C° 0 mm 1 mps 745 mmHg 92%
    05:00 +6°C° 0 mm 1 mps 745 mmHg 93%
    06:00 +6°C° 0 mm 1 mps 745 mmHg 92%
    07:00 +6°C° 0 mm 1 mps 745 mmHg 92%
    08:00 +5°C° 0 mm 0 mps 745 mmHg 92%
    09:00 +7°C° 0 mm 1 mps 745 mmHg 87%
    10:00 +8°C° 0 mm 1 mps 745 mmHg 83%
    11:00 +9°C° 0 mm 1 mps 745 mmHg 78%
    12:00 +10°C° 0 mm 1 mps 744 mmHg 76%
    13:00 +10°C° 0 mm 1 mps 744 mmHg 74%
    14:00 +11°C° 0 mm 1 mps 744 mmHg 72%
    15:00 +10°C° 0 mm 2 mps 743 mmHg 74%
    16:00 +9°C° 0 mm 2 mps 743 mmHg 75%
    17:00 +9°C° 0 mm 2 mps 742 mmHg 77%
    18:00 +9°C° 0 mm 2 mps 742 mmHg 80%
    19:00 +8°C° 0 mm 2 mps 742 mmHg 83%
    20:00 +8°C° 0 mm 2 mps 742 mmHg 86%
    21:00 +7°C° 0 mm 2 mps 742 mmHg 86%
    22:00 +7°C° 0 mm 2 mps 741 mmHg 87%
    23:00 +7°C° 0 mm 2 mps 741 mmHg 88%

    20 February, Thursday

    Time Temperature Precipitation Wind Pressure Humidity
    00:00 +7°C° 0 mm 2 mps 741 mmHg 89%
    01:00 +7°C° 0 mm 2 mps 740 mmHg 89%
    02:00 +6°C° 0 mm 2 mps 740 mmHg 90%
    03:00 +7°C° 0.1 mm 1 mps 739 mmHg 91%
    04:00 +7°C° 0.1 mm 1 mps 739 mmHg 92%
    05:00 +7°C° 0.1 mm 1 mps 738 mmHg 93%
    06:00 +7°C° 1.1 mm 1 mps 738 mmHg 94%
    07:00 +6°C° 1.1 mm 2 mps 738 mmHg 94%
    08:00 +6°C° 1.1 mm 2 mps 738 mmHg 95%
    09:00 +5°C° 0.5 mm 3 mps 739 mmHg 93%
    10:00 +5°C° 0.5 mm 4 mps 739 mmHg 92%
    11:00 +3°C° 0.5 mm 5 mps 739 mmHg 90%
    12:00 +3°C° 0.2 mm 5 mps 739 mmHg 91%
    13:00 +3°C° 0.2 mm 5 mps 739 mmHg 91%
    14:00 +2°C° 0.2 mm 6 mps 739 mmHg 92%
    15:00 +2°C° 0.5 mm 5 mps 739 mmHg 93%
    16:00 +3°C° 0.5 mm 4 mps 739 mmHg 93%
    17:00 +3°C° 0.5 mm 4 mps 739 mmHg 94%
    18:00 +3°C° 1.1 mm 3 mps 740 mmHg 95%
    19:00 +3°C° 1.1 mm 3 mps 740 mmHg 95%
    20:00 +3°C° 1.1 mm 3 mps 741 mmHg 95%
    21:00 +3°C° 0.6 mm 4 mps 741 mmHg 93%
    22:00 +2°C° 0.6 mm 5 mps 742 mmHg 90%
    23:00 +2°C° 0.6 mm 5 mps 743 mmHg 88%

    21 February, Friday

    Time Temperature Precipitation Wind Pressure Humidity
    00:00 +2°C° 0 mm 5 mps 743 mmHg 88%
    01:00 +2°C° 0 mm 5 mps 743 mmHg 87%
    02:00 +2°C° 0 mm 5 mps 744 mmHg 87%
    03:00 +2°C° 0 mm 5 mps 744 mmHg 88%
    04:00 +1°C° 0 mm 5 mps 745 mmHg 88%
    05:00 +1°C° 0 mm 5 mps 745 mmHg 89%
    06:00 +1°C° 0 mm 5 mps 745 mmHg 87%
    07:00 +1°C° 0 mm 5 mps 746 mmHg 86%
    08:00 0°C° 0 mm 5 mps 746 mmHg 84%
    15:00 +5°C° 0 mm 4 mps 747 mmHg 71%
    16:00 +5°C° 0 mm 4 mps 747 mmHg 74%
    17:00 +4°C° 0 mm 4 mps 747 mmHg 76%
    18:00 +4°C° 0 mm 3 mps 747 mmHg 78%
    19:00 +3°C° 0 mm 3 mps 747 mmHg 80%
    20:00 +4°C° 0 mm 2 mps 748 mmHg 82%
    21:00 +4°C° 0 mm 2 mps 748 mmHg 82%
    22:00 +3°C° 0 mm 2 mps 748 mmHg 83%
    23:00 +3°C° 0 mm 2 mps 748 mmHg 84%

    22 February, Saturday

    Time Temperature Precipitation Wind Pressure Humidity
    00:00 +2°C° 0 mm 3 mps 748 mmHg 82%
    01:00 +2°C° 0 mm 3 mps 748 mmHg 80%
    02:00 +1°C° 0 mm 3 mps 747 mmHg 78%
    03:00 +1°C° 0 mm 3 mps 747 mmHg 76%
    04:00 0°C° 0 mm 4 mps 747 mmHg 74%
    05:00 0°C° 0 mm 4 mps 747 mmHg 73%
    06:00 0°C° 0 mm 4 mps 747 mmHg 75%
    07:00 0°C° 0 mm 4 mps 748 mmHg 78%
    08:00 0°C° 0 mm 4 mps 748 mmHg 80%
    09:00 +1°C° 0 mm 4 mps 749 mmHg 76%
    10:00 +3°C° 0 mm 4 mps 749 mmHg 72%
    11:00 +4°C° 0 mm 4 mps 750 mmHg 69%
    12:00 +5°C° 0 mm 4 mps 750 mmHg 66%
    13:00 +5°C° 0 mm 4 mps 750 mmHg 62%
    14:00 +6°C° 0 mm 4 mps 750 mmHg 59%
    15:00 +7°C° 0 mm 3 mps 750 mmHg 60%
    16:00 +7°C° 0 mm 3 mps 750 mmHg 60%
    17:00 +7°C° 0 mm 2 mps 750 mmHg 60%
    18:00 +6°C° 0 mm 2 mps 750 mmHg 63%
    19:00 +6°C° 0 mm 1 mps 750 mmHg 66%
    20:00 +5°C° 0 mm 1 mps 751 mmHg 70%
    21:00 +4°C° 0 mm 2 mps 750 mmHg 71%
    22:00 +4°C° 0 mm 2 mps 750 mmHg 72%
    23:00 +4°C° 0 mm 2 mps 750 mmHg 74%
    Show more